Hourly Weather Lugovskoe

Today, 17 May, Monday

Time Temperature Precipitation Wind Pressure Humidity
00:00 +8°C° 0 mm 1 mps 756 mmHg 92%
01:00 +8°C° 0 mm 1 mps 756 mmHg 92%
02:00 +7°C° 0 mm 0 mps 756 mmHg 93%
03:00 +7°C° 0 mm 0 mps 756 mmHg 92%
04:00 +8°C° 0 mm 1 mps 756 mmHg 92%
05:00 +8°C° 0 mm 1 mps 756 mmHg 91%
06:00 +9°C° 0 mm 1 mps 756 mmHg 89%
07:00 +8°C° 0 mm 0 mps 756 mmHg 88%
08:00 +9°C° 0 mm 0 mps 756 mmHg 86%
09:00 +9°C° 0 mm 0 mps 756 mmHg 84%
10:00 +10°C° 0 mm 0 mps 756 mmHg 82%
11:00 +10°C° 0 mm 0 mps 756 mmHg 81%
12:00 +11°C° 0 mm 0 mps 755 mmHg 78%
13:00 +13°C° 0 mm 1 mps 755 mmHg 76%
14:00 +13°C° 0 mm 1 mps 755 mmHg 73%
15:00 +14°C° 0 mm 2 mps 754 mmHg 73%
16:00 +14°C° 0 mm 2 mps 754 mmHg 73%
17:00 +14°C° 0 mm 2 mps 754 mmHg 72%
18:00 +13°C° 0 mm 3 mps 753 mmHg 76%
19:00 +12°C° 0 mm 4 mps 752 mmHg 80%
20:00 +12°C° 0 mm 5 mps 751 mmHg 84%
21:00 +11°C° 0.1 mm 4 mps 751 mmHg 86%
22:00 +11°C° 0.1 mm 4 mps 750 mmHg 89%
23:00 +10°C° 0.1 mm 4 mps 749 mmHg 92%

Tomorrow, 18 May, Tuesday

Time Temperature Precipitation Wind Pressure Humidity
00:00 +10°C° 0.5 mm 4 mps 748 mmHg 93%
01:00 +10°C° 0.5 mm 4 mps 748 mmHg 94%
02:00 +9°C° 0.5 mm 5 mps 747 mmHg 95%
03:00 +9°C° 0.8 mm 5 mps 747 mmHg 94%
04:00 +8°C° 0.8 mm 5 mps 747 mmHg 94%
05:00 +8°C° 0.8 mm 5 mps 747 mmHg 93%
06:00 +8°C° 0.1 mm 5 mps 747 mmHg 92%
07:00 +8°C° 0.1 mm 5 mps 748 mmHg 91%
08:00 +7°C° 0.1 mm 5 mps 749 mmHg 89%
09:00 +7°C° 0.1 mm 5 mps 750 mmHg 86%
10:00 +8°C° 0.1 mm 4 mps 751 mmHg 84%
11:00 +8°C° 0.1 mm 4 mps 751 mmHg 81%
12:00 +10°C° 0 mm 3 mps 752 mmHg 71%
13:00 +12°C° 0 mm 3 mps 752 mmHg 62%
14:00 +13°C° 0 mm 3 mps 752 mmHg 52%
15:00 +13°C° 0 mm 3 mps 752 mmHg 49%
16:00 +14°C° 0 mm 3 mps 752 mmHg 46%
17:00 +14°C° 0 mm 4 mps 752 mmHg 42%
18:00 +13°C° 0 mm 4 mps 753 mmHg 44%
19:00 +11°C° 0 mm 4 mps 754 mmHg 45%
20:00 +9°C° 0 mm 5 mps 754 mmHg 47%
21:00 +7°C° 0 mm 4 mps 755 mmHg 47%
22:00 +6°C° 0 mm 4 mps 755 mmHg 48%
23:00 +5°C° 0 mm 4 mps 755 mmHg 48%

Day after tomorrow, 19 May, Wednesday

Time Temperature Precipitation Wind Pressure Humidity
00:00 +4°C° 0 mm 4 mps 756 mmHg 51%
01:00 +3°C° 0 mm 4 mps 756 mmHg 54%
02:00 +2°C° 0 mm 3 mps 756 mmHg 57%
03:00 +1°C° 0 mm 4 mps 757 mmHg 56%
04:00 +1°C° 0 mm 4 mps 757 mmHg 56%
05:00 +3°C° 0 mm 4 mps 757 mmHg 55%
06:00 +4°C° 0 mm 4 mps 757 mmHg 48%
07:00 +5°C° 0 mm 4 mps 757 mmHg 41%
08:00 +6°C° 0 mm 5 mps 757 mmHg 35%
09:00 +7°C° 0 mm 5 mps 757 mmHg 33%
10:00 +8°C° 0 mm 5 mps 757 mmHg 31%
11:00 +8°C° 0 mm 4 mps 757 mmHg 29%
12:00 +9°C° 0 mm 5 mps 757 mmHg 28%
13:00 +9°C° 0 mm 5 mps 756 mmHg 27%
14:00 +9°C° 0 mm 6 mps 756 mmHg 26%
15:00 +9°C° 0 mm 6 mps 756 mmHg 27%
16:00 +9°C° 0 mm 6 mps 756 mmHg 28%
17:00 +8°C° 0 mm 7 mps 756 mmHg 28%
18:00 +7°C° 0 mm 6 mps 756 mmHg 31%
19:00 +5°C° 0 mm 6 mps 757 mmHg 33%
20:00 +3°C° 0 mm 5 mps 757 mmHg 36%
21:00 +3°C° 0 mm 4 mps 757 mmHg 39%
22:00 +1°C° 0 mm 4 mps 758 mmHg 42%
23:00 +1°C° 0 mm 3 mps 758 mmHg 45%

20 May, Thursday

Time Temperature Precipitation Wind Pressure Humidity
00:00 +1°C° 0 mm 3 mps 758 mmHg 47%
01:00 0°C° 0 mm 3 mps 758 mmHg 50%
02:00 -2°C° 0 mm 4 mps 758 mmHg 53%
03:00 -1°C° 0 mm 4 mps 759 mmHg 52%
04:00 -1°C° 0 mm 4 mps 759 mmHg 52%
05:00 -1°C° 0 mm 4 mps 759 mmHg 51%
06:00 0°C° 0 mm 4 mps 759 mmHg 46%
07:00 +3°C° 0 mm 4 mps 759 mmHg 42%
08:00 +4°C° 0 mm 4 mps 760 mmHg 37%
09:00 +5°C° 0 mm 4 mps 759 mmHg 34%
10:00 +6°C° 0 mm 4 mps 759 mmHg 32%
11:00 +8°C° 0 mm 3 mps 759 mmHg 30%
12:00 +9°C° 0 mm 3 mps 759 mmHg 29%
13:00 +9°C° 0 mm 3 mps 759 mmHg 28%
14:00 +10°C° 0 mm 3 mps 759 mmHg 27%
15:00 +10°C° 0 mm 2 mps 759 mmHg 28%
16:00 +10°C° 0 mm 2 mps 759 mmHg 28%
17:00 +10°C° 0 mm 2 mps 759 mmHg 29%
18:00 +9°C° 0 mm 2 mps 759 mmHg 33%
19:00 +8°C° 0 mm 2 mps 759 mmHg 37%
20:00 +7°C° 0 mm 2 mps 759 mmHg 42%
21:00 +6°C° 0 mm 2 mps 759 mmHg 43%
22:00 +6°C° 0 mm 2 mps 759 mmHg 45%
23:00 +5°C° 0 mm 2 mps 759 mmHg 46%

21 May, Friday

Time Temperature Precipitation Wind Pressure Humidity
00:00 +5°C° 0 mm 2 mps 759 mmHg 48%
01:00 +4°C° 0 mm 2 mps 759 mmHg 50%
02:00 +4°C° 0 mm 2 mps 759 mmHg 53%
03:00 +4°C° 0 mm 2 mps 760 mmHg 53%
04:00 +5°C° 0 mm 2 mps 760 mmHg 53%
05:00 +4°C° 0 mm 3 mps 760 mmHg 53%
06:00 +5°C° 0 mm 3 mps 760 mmHg 49%
07:00 +6°C° 0 mm 4 mps 759 mmHg 45%
08:00 +8°C° 0 mm 4 mps 759 mmHg 41%
09:00 +8°C° 0 mm 5 mps 759 mmHg 41%
10:00 +9°C° 0 mm 5 mps 759 mmHg 41%
11:00 +9°C° 0 mm 6 mps 758 mmHg 42%
12:00 +8°C° 0.8 mm 6 mps 758 mmHg 57%
13:00 +7°C° 0.8 mm 6 mps 758 mmHg 71%
14:00 +4°C° 0.8 mm 6 mps 758 mmHg 86%
15:00 +5°C° 0.7 mm 5 mps 757 mmHg 88%
16:00 +5°C° 0.7 mm 5 mps 757 mmHg 90%
17:00 +5°C° 0.7 mm 5 mps 756 mmHg 92%
18:00 +5°C° 1 mm 4 mps 756 mmHg 93%
19:00 +5°C° 1 mm 4 mps 755 mmHg 94%
20:00 +5°C° 1 mm 4 mps 755 mmHg 95%
21:00 +5°C° 0.1 mm 3 mps 754 mmHg 95%
22:00 +5°C° 0.1 mm 3 mps 754 mmHg 96%
23:00 +6°C° 0.1 mm 2 mps 754 mmHg 96%

22 May, Saturday

Time Temperature Precipitation Wind Pressure Humidity
00:00 +6°C° 0 mm 2 mps 754 mmHg 97%
01:00 +7°C° 0 mm 1 mps 754 mmHg 97%
02:00 +7°C° 0 mm 1 mps 754 mmHg 97%
03:00 +8°C° 0 mm 1 mps 754 mmHg 97%
04:00 +8°C° 0 mm 1 mps 754 mmHg 96%
05:00 +8°C° 0 mm 1 mps 755 mmHg 96%
06:00 +8°C° 0 mm 1 mps 755 mmHg 94%
07:00 +9°C° 0 mm 1 mps 755 mmHg 92%
08:00 +9°C° 0 mm 1 mps 755 mmHg 91%
09:00 +10°C° 0 mm 1 mps 755 mmHg 89%
10:00 +10°C° 0 mm 1 mps 756 mmHg 88%
11:00 +11°C° 0 mm 1 mps 756 mmHg 87%
12:00 +11°C° 0 mm 1 mps 757 mmHg 86%
13:00 +11°C° 0 mm 1 mps 757 mmHg 86%
14:00 +11°C° 0 mm 1 mps 757 mmHg 86%
15:00 +11°C° 0 mm 1 mps 758 mmHg 84%
16:00 +11°C° 0 mm 1 mps 758 mmHg 83%
17:00 +12°C° 0 mm 2 mps 758 mmHg 82%
18:00 +10°C° 0 mm 2 mps 759 mmHg 85%
19:00 +11°C° 0 mm 1 mps 759 mmHg 88%
20:00 +10°C° 0 mm 1 mps 759 mmHg 91%
21:00 +9°C° 0 mm 1 mps 760 mmHg 91%
22:00 +9°C° 0 mm 1 mps 760 mmHg 92%
23:00 +8°C° 0 mm 1 mps 760 mmHg 93%
Show more

We Need Your Consent

Meteoprog and our Service Providers may store and access personal data such as cookies, device identifiers or other similar technologies on your device and process such data to personalise content and ads, as well as provide social media features and to analyse the traffic.

  • Store and/or access information on your device

    Cookies, device identifiers or other information can be stored or accessed on your device for the purposes indicated above.

  • Personalised ads and content, ad and content measurement, audience insights, and products development

    Ads and content can be personalised based on a profile. More data can be added to better personalise ads and content. Ad and content performance can be measured. Insights about the audience who saw the ads and content can be derived. Such data can be used to develop or improve user’s experience, systems and software.

By clicking ‘I Agree’ you will allow the use of indicated cookies, device identifiers, web beacons or other similar technologies. Your settings can be changed in the browser on your device.

For certain purposes, legitimate interests may be relied on, rather than consent. You can read more about this in our Privacy and Cookie Policy.